When you browse on this site, cookies collect data to enhance your experience and personalize the content and advertising you see.
Visit our Privacy Policy to learn more. By continuing to use the site, you agree to this use of cookies and data.
  • In Netherlands
  • List of Countries
  • For 7 days
  • Water Temperature
  • Weather Map
  • Weather Widgets
  • user-avatar
    Login

    Hourly Weather Sylhet

    Today, 15 October, Tuesday

    Time Temperature Precipitation Wind Pressure Humidity
    00:00 +26°C° 0 mm 1 mps 757 mmHg 80%
    01:00 +26°C° 0 mm 1 mps 757 mmHg 81%
    02:00 +23°C° 0 mm 0 mps 757 mmHg 83%
    03:00 +23°C° 0 mm 0 mps 757 mmHg 85%
    04:00 +25°C° 0 mm 1 mps 757 mmHg 86%
    05:00 +25°C° 0 mm 1 mps 757 mmHg 87%
    06:00 +24°C° 0 mm 1 mps 757 mmHg 88%
    07:00 +26°C° 0 mm 1 mps 758 mmHg 83%
    08:00 +28°C° 0 mm 1 mps 758 mmHg 78%
    09:00 +30°C° 0 mm 1 mps 759 mmHg 73%
    10:00 +32°C° 0 mm 1 mps 759 mmHg 68%
    11:00 +33°C° 0 mm 1 mps 758 mmHg 64%
    12:00 +34°C° 0 mm 1 mps 757 mmHg 60%
    13:00 +35°C° 0 mm 1 mps 757 mmHg 58%
    14:00 +35°C° 0 mm 1 mps 756 mmHg 55%
    15:00 +35°C° 0 mm 1 mps 756 mmHg 53%
    16:00 +33°C° 0 mm 1 mps 756 mmHg 59%
    17:00 +31°C° 0 mm 2 mps 756 mmHg 66%
    18:00 +30°C° 0 mm 2 mps 756 mmHg 72%
    19:00 +29°C° 0 mm 1 mps 757 mmHg 73%
    20:00 +28°C° 0 mm 1 mps 758 mmHg 75%
    21:00 +28°C° 0 mm 1 mps 758 mmHg 76%
    22:00 +27°C° 0 mm 1 mps 758 mmHg 78%
    23:00 +27°C° 0 mm 1 mps 758 mmHg 79%

    Tomorrow, 16 October, Wednesday

    Time Temperature Precipitation Wind Pressure Humidity
    00:00 +27°C° 0 mm 1 mps 758 mmHg 81%
    01:00 +26°C° 0 mm 1 mps 758 mmHg 82%
    02:00 +26°C° 0 mm 1 mps 758 mmHg 84%
    03:00 +26°C° 0 mm 1 mps 758 mmHg 86%
    04:00 +25°C° 0 mm 1 mps 758 mmHg 88%
    05:00 +25°C° 0 mm 1 mps 758 mmHg 89%
    06:00 +25°C° 0 mm 1 mps 758 mmHg 90%
    07:00 +27°C° 0 mm 1 mps 759 mmHg 85%
    08:00 +28°C° 0 mm 1 mps 759 mmHg 79%
    09:00 +30°C° 0 mm 1 mps 759 mmHg 73%
    10:00 +32°C° 0.2 mm 1 mps 759 mmHg 68%
    11:00 +33°C° 0.2 mm 1 mps 758 mmHg 63%
    12:00 +32°C° 0.2 mm 0 mps 758 mmHg 58%
    13:00 +32°C° 0 mm 0 mps 757 mmHg 57%
    14:00 +32°C° 0 mm 0 mps 757 mmHg 55%
    15:00 +34°C° 0 mm 1 mps 756 mmHg 54%
    16:00 +33°C° 0 mm 1 mps 756 mmHg 60%
    17:00 +31°C° 0 mm 1 mps 756 mmHg 66%
    18:00 +30°C° 0 mm 1 mps 756 mmHg 72%
    19:00 +29°C° 0 mm 1 mps 757 mmHg 74%
    20:00 +28°C° 0 mm 1 mps 757 mmHg 77%
    21:00 +26°C° 0 mm 0 mps 758 mmHg 80%
    22:00 +25°C° 0 mm 0 mps 758 mmHg 81%
    23:00 +27°C° 0 mm 1 mps 758 mmHg 82%

    Day after tomorrow, 17 October, Thursday

    Time Temperature Precipitation Wind Pressure Humidity
    00:00 +27°C° 0 mm 1 mps 758 mmHg 84%
    01:00 +26°C° 0.1 mm 1 mps 758 mmHg 86%
    02:00 +26°C° 0.1 mm 1 mps 758 mmHg 88%
    03:00 +26°C° 0.1 mm 1 mps 758 mmHg 90%
    04:00 +25°C° 0 mm 1 mps 758 mmHg 91%
    05:00 +25°C° 0 mm 1 mps 758 mmHg 93%
    06:00 +25°C° 0 mm 1 mps 759 mmHg 94%
    07:00 +27°C° 0 mm 2 mps 759 mmHg 88%
    08:00 +28°C° 0 mm 2 mps 759 mmHg 82%
    09:00 +30°C° 0 mm 2 mps 760 mmHg 76%
    10:00 +31°C° 0 mm 2 mps 759 mmHg 71%
    11:00 +32°C° 0 mm 1 mps 758 mmHg 65%
    12:00 +34°C° 0 mm 1 mps 758 mmHg 59%
    13:00 +34°C° 0 mm 1 mps 757 mmHg 57%
    14:00 +34°C° 0 mm 1 mps 757 mmHg 55%
    15:00 +32°C° 0 mm 0 mps 756 mmHg 53%
    16:00 +33°C° 0 mm 1 mps 756 mmHg 59%
    17:00 +31°C° 0 mm 1 mps 756 mmHg 65%
    18:00 +29°C° 0 mm 1 mps 756 mmHg 71%
    19:00 +29°C° 0 mm 1 mps 757 mmHg 73%
    20:00 +28°C° 0 mm 1 mps 757 mmHg 76%
    21:00 +28°C° 0 mm 1 mps 758 mmHg 78%
    22:00 +27°C° 0 mm 1 mps 758 mmHg 80%
    23:00 +27°C° 0 mm 1 mps 758 mmHg 82%

    18 October, Friday

    Time Temperature Precipitation Wind Pressure Humidity
    00:00 +27°C° 0 mm 1 mps 758 mmHg 83%
    01:00 +26°C° 0 mm 1 mps 758 mmHg 85%
    02:00 +26°C° 0 mm 1 mps 758 mmHg 86%
    03:00 +24°C° 0 mm 0 mps 757 mmHg 88%
    04:00 +25°C° 0 mm 1 mps 758 mmHg 89%
    05:00 +25°C° 0 mm 1 mps 758 mmHg 90%
    06:00 +25°C° 0 mm 1 mps 758 mmHg 91%
    07:00 +27°C° 0 mm 2 mps 758 mmHg 85%
    08:00 +28°C° 0 mm 2 mps 759 mmHg 79%
    09:00 +30°C° 0 mm 2 mps 759 mmHg 73%
    10:00 +31°C° 0 mm 2 mps 759 mmHg 68%
    11:00 +33°C° 0 mm 1 mps 758 mmHg 63%
    12:00 +34°C° 0 mm 1 mps 758 mmHg 58%
    13:00 +34°C° 0 mm 1 mps 757 mmHg 56%
    14:00 +34°C° 0 mm 1 mps 756 mmHg 54%
    15:00 +33°C° 0 mm 0 mps 756 mmHg 53%
    16:00 +33°C° 0 mm 1 mps 756 mmHg 58%
    17:00 +31°C° 0 mm 1 mps 756 mmHg 64%
    18:00 +30°C° 0 mm 1 mps 756 mmHg 70%
    19:00 +29°C° 0 mm 1 mps 757 mmHg 73%
    20:00 +29°C° 0 mm 2 mps 757 mmHg 75%
    21:00 +28°C° 0 mm 2 mps 758 mmHg 78%
    22:00 +28°C° 0 mm 1 mps 758 mmHg 79%
    23:00 +27°C° 0 mm 1 mps 758 mmHg 80%

    19 October, Saturday

    Time Temperature Precipitation Wind Pressure Humidity
    00:00 +27°C° 0 mm 1 mps 758 mmHg 82%
    01:00 +26°C° 0 mm 1 mps 758 mmHg 83%
    02:00 +26°C° 0 mm 1 mps 758 mmHg 84%
    03:00 +24°C° 0 mm 0 mps 757 mmHg 86%
    04:00 +24°C° 0 mm 0 mps 758 mmHg 87%
    05:00 +23°C° 0 mm 0 mps 758 mmHg 88%
    06:00 +23°C° 0 mm 0 mps 758 mmHg 90%
    07:00 +27°C° 0 mm 1 mps 758 mmHg 84%
    08:00 +29°C° 0 mm 1 mps 759 mmHg 79%
    09:00 +30°C° 0 mm 1 mps 759 mmHg 73%
    10:00 +32°C° 0 mm 1 mps 759 mmHg 67%
    11:00 +33°C° 0 mm 1 mps 758 mmHg 60%
    12:00 +34°C° 0 mm 1 mps 758 mmHg 54%
    13:00 +34°C° 0 mm 1 mps 757 mmHg 53%
    14:00 +35°C° 0 mm 2 mps 757 mmHg 52%
    15:00 +35°C° 0 mm 2 mps 756 mmHg 52%
    16:00 +32°C° 0 mm 2 mps 756 mmHg 57%
    17:00 +30°C° 0 mm 2 mps 756 mmHg 63%
    18:00 +29°C° 0 mm 1 mps 756 mmHg 69%
    19:00 +28°C° 0 mm 1 mps 757 mmHg 71%
    20:00 +28°C° 0 mm 1 mps 757 mmHg 73%
    21:00 +27°C° 0 mm 2 mps 758 mmHg 76%
    22:00 +27°C° 0 mm 1 mps 758 mmHg 78%
    23:00 +27°C° 0 mm 1 mps 758 mmHg 81%

    20 October, Sunday

    Time Temperature Precipitation Wind Pressure Humidity
    00:00 +26°C° 0 mm 1 mps 758 mmHg 83%
    01:00 +26°C° 0 mm 1 mps 758 mmHg 85%
    02:00 +26°C° 0 mm 1 mps 757 mmHg 86%
    03:00 +25°C° 0 mm 1 mps 757 mmHg 88%
    04:00 +25°C° 0 mm 1 mps 758 mmHg 89%
    05:00 +25°C° 0 mm 1 mps 758 mmHg 90%
    06:00 +23°C° 0 mm 0 mps 758 mmHg 91%
    07:00 +26°C° 0 mm 1 mps 759 mmHg 85%
    08:00 +28°C° 0 mm 1 mps 759 mmHg 79%
    09:00 +30°C° 0 mm 1 mps 759 mmHg 74%
    10:00 +31°C° 0 mm 1 mps 759 mmHg 68%
    11:00 +31°C° 0 mm 0 mps 758 mmHg 63%
    12:00 +32°C° 0 mm 0 mps 758 mmHg 58%
    13:00 +34°C° 0 mm 1 mps 757 mmHg 55%
    14:00 +34°C° 0 mm 1 mps 757 mmHg 53%
    15:00 +34°C° 0 mm 1 mps 756 mmHg 51%
    16:00 +33°C° 0 mm 1 mps 756 mmHg 57%
    17:00 +31°C° 0 mm 1 mps 756 mmHg 63%
    18:00 +29°C° 0 mm 1 mps 756 mmHg 69%
    19:00 +29°C° 0 mm 1 mps 757 mmHg 72%
    20:00 +28°C° 0 mm 1 mps 757 mmHg 74%
    21:00 +28°C° 0 mm 1 mps 757 mmHg 77%
    22:00 +27°C° 0 mm 1 mps 757 mmHg 79%
    23:00 +27°C° 0 mm 1 mps 757 mmHg 80%
    Show more